TimeCDT,TemperatureF,Dew PointF,Humidity,Sea Level PressureIn,VisibilityMPH,Wind Direction,Wind SpeedMPH,Gust SpeedMPH,PrecipitationIn,Events,Conditions,WindDirDegrees,DateUTC
12:53 AM,71.1,21.0,15,29.64,7.0,NW,18.4,29.9,N/A,,Overcast,320,2013-04-18 05:53:00
1:53 AM,62.1,25.0,24,29.70,10.0,North,19.6,32.2,N/A,,Overcast,360,2013-04-18 06:53:00
2:53 AM,55.0,34.0,45,29.77,9.0,NE,18.4,29.9,N/A,,Clear,40,2013-04-18 07:53:00
3:53 AM,48.0,34.0,58,29.82,10.0,NE,16.1,-,N/A,,Clear,40,2013-04-18 08:53:00
4:53 AM,45.0,32.0,60,29.85,10.0,NNE,15.0,-,N/A,,Clear,20,2013-04-18 09:53:00
5:53 AM,42.1,28.9,60,29.87,10.0,North,15.0,-,N/A,,Clear,10,2013-04-18 10:53:00
6:53 AM,41.0,28.9,62,29.91,10.0,NNE,9.2,-,N/A,,Clear,20,2013-04-18 11:53:00
7:53 AM,41.0,27.0,57,29.96,10.0,North,16.1,-,N/A,,Clear,10,2013-04-18 12:53:00
8:53 AM,42.1,23.0,47,29.99,10.0,NNE,21.9,27.6,N/A,,Clear,30,2013-04-18 13:53:00
9:53 AM,45.0,23.0,42,30.01,10.0,NNE,11.5,20.7,N/A,,Scattered Clouds,30,2013-04-18 14:53:00
10:53 AM,46.9,21.9,37,30.02,10.0,NNE,13.8,18.4,N/A,,Clear,30,2013-04-18 15:53:00
11:53 AM,50.0,21.9,33,30.02,10.0,North,8.1,-,N/A,,Clear,10,2013-04-18 16:53:00
12:53 PM,54.0,21.9,29,29.99,10.0,WNW,11.5,17.3,N/A,,Clear,300,2013-04-18 17:53:00
1:53 PM,57.0,21.9,26,29.99,10.0,Variable,6.9,20.7,N/A,,Clear,0,2013-04-18 18:53:00
2:53 PM,59.0,21.0,23,29.98,10.0,NNW,13.8,18.4,N/A,,Clear,340,2013-04-18 19:53:00
3:53 PM,61.0,19.9,21,29.96,10.0,North,11.5,17.3,N/A,,Clear,360,2013-04-18 20:53:00
4:53 PM,62.1,19.0,19,29.95,10.0,WNW,11.5,20.7,N/A,,Clear,300,2013-04-18 21:53:00
5:53 PM,61.0,17.1,18,29.95,10.0,Calm,Calm,-,N/A,,Clear,0,2013-04-18 22:53:00
6:53 PM,63.0,16.0,16,29.95,10.0,NE,5.8,-,N/A,,Clear,40,2013-04-18 23:53:00
7:53 PM,61.0,16.0,17,29.97,10.0,NNE,5.8,-,N/A,,Clear,20,2013-04-19 00:53:00
8:53 PM,57.0,16.0,20,30.00,10.0,ENE,6.9,-,N/A,,Clear,70,2013-04-19 01:53:00
9:53 PM,54.0,12.9,20,30.05,10.0,ENE,8.1,-,N/A,,Clear,60,2013-04-19 02:53:00
10:53 PM,51.1,12.0,21,30.09,10.0,ENE,8.1,-,N/A,,Clear,70,2013-04-19 03:53:00
11:53 PM,48.0,10.9,22,30.11,10.0,ENE,8.1,-,N/A,,Clear,60,2013-04-19 04:53:00